This demonstration page uses our WeatherBlox Daily Observations layout. Learn more.

Left ArrowRight Arrow

Hourly Observations for November 23, 2021

Temp ( °F °C ) Dew Point ( °F °C ) Humidity (%) Winds ( mph kmh ) Pressure ( in mb ) Visibility ( mi km ) Precip ( " mm )
12:53 am 00:53 Clear 42 5.6 21 -6.1 43 43 E 3 6 30.14 1021 10 16 0.00 0.00
1:53 am 01:53 Clear 37 2.8 18 -7.8 46 46 ENE 3 6 30.13 1020 10 16 0.00 0.00
2:53 am 02:53 Clear 35 1.7 17 -8.3 48 48 NNE 5 7 30.11 1020 10 16 0.00 0.00
3:53 am 03:53 Clear 35 1.7 17 -8.3 48 48 NNE 5 7 30.11 1020 10 16 0.00 0.00
4:53 am 04:53 Clear 35 1.7 18 -7.8 50 50 Calm 30.09 1019 10 16 0.00 0.00
5:53 am 05:53 Clear 35 1.7 18 -7.8 50 50 NE 5 7 30.10 1019 10 16 0.00 0.00
6:53 am 06:53 Clear 35 1.7 18 -7.8 50 50 NNW 7 11 30.11 1020 10 16 0.00 0.00
7:53 am 07:53 Sunny 35 1.7 18 -7.8 50 50 N 5 7 30.11 1020 10 16 0.00 0.00
8:53 am 08:53 Sunny 45 7.2 22 -5.6 40 40 Calm 30.09 1019 10 16 0.00 0.00
9:53 am 09:53 Sunny 54 12.2 25 -3.9 33 33 SE 7 11 30.07 1018 10 16 0.00 0.00
10:53 am 10:53 Sunny 60 15.6 26 -3.3 27 27 S 7 11 30.04 1017 10 16 0.00 0.00
11:53 am 11:53 Sunny 65 18.3 27 -2.8 24 24 SSW 5 7 30.01 1016 10 16 0.00 0.00
12:53 pm 12:53 Sunny 68 20 27 -2.8 21 21 SSW 6 9 29.97 1015 10 16 0.00 0.00
1:53 pm 13:53 Sunny 72 22.2 33 0.6 24 24 S 9 15 29.93 1013 10 16 0.00 0.00
2:53 pm 14:53 Sunny 73 22.8 35 1.7 25 25 SSE 8 13 29.90 1012 10 16 0.00 0.00
3:53 pm 15:53 Sunny 74 23.3 37 2.8 26 26 SE 10 17 29.87 1011 10 16 0.00 0.00
4:53 pm 16:53 Sunny 74 23.3 37 2.8 26 26 SE 7 11 29.86 1011 10 16 0.00 0.00
5:53 pm 17:53 Clear 70 21.1 33 0.6 26 26 ESE 9 15 29.84 1011 10 16 0.00 0.00
6:53 pm 18:53 Clear 67 19.4 32 0 27 27 ESE 13 20 29.85 1011 10 16 0.00 0.00
7:53 pm 19:53 Clear 64 17.8 31 -0.6 29 29 SE 15 24 29.85 1011 10 16 0.00 0.00
8:53 pm 20:53 Clear 64 17.8 32 0 30 30 SE 15 24 29.85 1011 10 16 0.00 0.00
9:53 pm 21:53 Clear 63 17.2 34 1.1 34 34 SSE 16 26 29.84 1011 10 16 0.00 0.00
10:53 pm 22:53 Clear 60 15.6 36 2.2 41 41 SE 13 20 29.84 1010 10 16 0.00 0.00
11:53 pm 23:53 Clear 58 14.4 36 2.2 44 44 SE 13 20 29.83 1010 10 16 0.00 0.00

Powered by AerisWeather